This is the latest recevied weather packets stored in our database for station/object DL1GHN-6. If no packets are shown the sender has not sent any weather packets the latest 10 day(s).
| Time | Temp. | Humidity | Pressure | Rain* | Wind** | Luminosity | Snow |
|---|---|---|---|---|---|---|---|
| 1777916570 | 17.78° C | 64% | 1013 hPa | 0 mm | - | 23 W/m² | - |
| 1777916271 | 17.78° C | 62% | 1012.9 hPa | 0 mm | - | 28 W/m² | - |
| 1777915971 | 18.33° C | 62% | 1013 hPa | 0 mm | - | 35 W/m² | - |
| 1777915671 | 18.33° C | 61% | 1013 hPa | 0 mm | - | 42 W/m² | - |
| 1777915371 | 18.33° C | 61% | 1013 hPa | 0 mm | - | 44 W/m² | - |
| 1777915070 | 18.33° C | 61% | 1013 hPa | 0 mm | - | 44 W/m² | - |
| 1777914771 | 18.33° C | 61% | 1013 hPa | 0 mm | - | 51 W/m² | - |
| 1777914470 | 18.33° C | 61% | 1013 hPa | 0 mm | - | 56 W/m² | - |
| 1777914170 | 18.89° C | 62% | 1013 hPa | 0 mm | - | 56 W/m² | - |
| 1777913871 | 18.89° C | 61% | 1013 hPa | 0 mm | - | 58 W/m² | - |
| 1777913571 | 18.89° C | 59% | 1013 hPa | 0 mm | - | 44 W/m² | - |
| 1777913272 | 18.89° C | 60% | 1013 hPa | 0 mm | - | 44 W/m² | - |
| 1777912971 | 19.44° C | 58% | 1013 hPa | 0 mm | - | 47 W/m² | - |
| 1777912671 | 19.44° C | 56% | 1013 hPa | 0 mm | - | 60 W/m² | - |
| 1777912371 | 19.44° C | 60% | 1012.9 hPa | 0 mm | - | 69 W/m² | - |
| 1777912070 | 19.44° C | 60% | 1012.9 hPa | 0 mm | - | 77 W/m² | - |
| 1777911771 | 19.44° C | 59% | 1012.9 hPa | 0 mm | - | 83 W/m² | - |
| 1777911471 | 20° C | 61% | 1012.9 hPa | 0 mm | - | 81 W/m² | - |
| 1777911171 | 20° C | 58% | 1012.9 hPa | 0 mm | - | 79 W/m² | - |
| 1777910871 | 19.44° C | 56% | 1012.8 hPa | 0 mm | - | 79 W/m² | - |
| 1777910571 | 19.44° C | 55% | 1012.7 hPa | 0 mm | - | 84 W/m² | - |
| 1777910271 | 19.44° C | 52% | 1012.7 hPa | 0 mm | - | 91 W/m² | - |
| 1777909970 | 19.44° C | 51% | 1012.7 hPa | 0 mm | - | 100 W/m² | - |
| 1777909671 | 19.44° C | 53% | 1012.6 hPa | 0 mm | - | 105 W/m² | - |
| 1777909371 | 19.44° C | 54% | 1012.7 hPa | 0 mm | - | 114 W/m² | - |
* Rain latest hour (hover to see other rain measurements)
** Current wind speed in m/s (hover to see current wind gust speed)